GW6643 Weather Reports


Display with metric or nautical units.
time (UTC)temp
F
wind
direction
speed
MPH
gust
MPH
rain 1hr
in
rain 24hr
in
rain mn
in
humidity
%
barometer
mb
20260508024205 33 135 1.0 2.0 0.00 0.00 0.00 93 1012.2
20260508023704 33 135 0.0 2.0 0.00 0.00 0.00 93 1012.3
20260508023205 34 137 0.0 0.0 0.00 0.00 0.00 93 1012.2
20260508022705 34 137 0.0 0.0 0.00 0.00 0.00 93 1012.2
20260508022205 34 137 0.0 0.0 0.00 0.00 0.00 93 1012.3
20260508021705 34 137 0.0 2.0 0.00 0.00 0.00 93 1012.5
20260508021205 34 137 0.0 2.0 0.00 0.00 0.00 93 1012.5
20260508020704 34 135 0.0 2.0 0.00 0.00 0.00 93 1012.5
20260508020204 34 137 2.0 0.0 0.00 0.00 0.00 93 1012.6
20260508015204 34 137 0.0 2.0 0.00 0.00 0.00 93 1012.6
20260508014705 34 137 0.0 2.0 0.00 0.00 0.00 93 1012.6
20260508013705 34 137 0.0 2.0 0.00 0.00 0.00 93 1012.8
20260508013205 34 137 0.0 2.0 0.00 0.00 0.00 92 1012.8
20260508012205 35 137 1.0 4.0 0.00 0.00 0.00 93 1012.8
20260508011204 34 137 2.0 3.0 0.00 0.00 0.00 92 1013.0
20260508010705 34 106 0.0 3.0 0.00 0.00 0.00 92 1013.0
20260508010204 35 104 2.0 3.0 0.00 0.00 0.00 92 1013.1
20260508005704 35 197 1.0 3.0 0.00 0.00 0.00 93 1013.1
20260508005205 35 199 2.0 0.0 0.00 0.00 0.00 93 1013.1
20260508004705 35 319 0.0 0.0 0.00 0.00 0.00 93 1013.1
20260508004205 35 319 0.0 0.0 0.00 0.00 0.00 93 1013.2
20260508003705 35 319 0.0 0.0 0.00 0.00 0.00 93 1013.3
20260508003205 35 319 0.0 0.0 0.00 0.00 0.00 92 1013.4
20260508002704 34 319 0.0 0.0 0.00 0.00 0.00 92 1013.3
20260508001705 34 319 0.0 0.0 0.00 0.00 0.00 92 1013.5
20260508001205 34 319 0.0 0.0 0.00 0.00 0.00 92 1013.6
20260508000704 34 319 0.0 0.0 0.00 0.00 0.00 92 1013.6
20260508000205 34 319 0.0 0.0 0.00 0.00 0.00 92 1013.6
20260507235705 34 319 0.0 0.0 0.00 0.00 0.00 92 1013.8
20260507235205 34 319 0.0 0.0 0.00 0.00 0.00 91 1013.8
20260507234704 35 319 0.0 0.0 0.00 0.00 0.00 91 1013.8
20260507234205 35 319 0.0 0.0 0.00 0.00 0.00 92 1013.8
20260507233705 35 319 0.0 1.0 0.00 0.00 0.00 91 1013.9
20260507232704 35 319 0.0 2.0 0.00 0.00 0.00 91 1013.9
20260507232225 35 319 0.0 2.0 0.00 0.00 0.00 91 1014.0
20260507231704 36 319 0.0 2.0 0.00 0.00 0.00 91 1014.1
20260507231205 36 319 0.0 3.0 0.00 0.00 0.00 91 1014.1
20260507230704 36 317 0.0 4.0 0.00 0.00 0.00 91 1014.1
20260507230205 36 317 2.0 4.0 0.00 0.00 0.00 91 1014.2
20260507225705 35 316 1.0 4.0 0.00 0.00 0.00 91 1014.1
20260507225204 35 0 2.0 3.0 0.00 0.00 0.00 91 1014.2
20260507224705 35 3 1.0 0.0 0.00 0.00 0.00 90 1014.1
20260507223729 36 100 0.0 0.0 0.00 0.00 0.00 90 1014.1
20260507223204 36 102 0.0 0.0 0.00 0.00 0.00 90 1014.2
20260507222704 36 100 0.0 0.0 0.00 0.00 0.00 90 1014.2
20260507222205 36 100 0.0 0.0 0.00 0.00 0.00 90 1014.2
20260507221705 36 100 0.0 0.0 0.00 0.00 0.00 90 1014.1
20260507220704 37 100 0.0 0.0 0.00 0.00 0.00 90 1014.1
20260507215705 37 100 0.0 0.0 0.00 0.00 0.00 90 1014.1
20260507215205 37 100 0.0 0.0 0.00 0.00 0.00 89 1014.2
20260507214705 37 100 0.0 0.0 0.00 0.00 0.00 89 1014.2
20260507213205 37 100 0.0 0.0 0.00 0.00 0.00 89 1014.2
20260507212705 37 100 0.0 0.0 0.00 0.00 0.00 89 1014.2
20260507212205 37 100 0.0 0.0 0.00 0.00 0.00 88 1014.1
20260507211704 38 100 0.0 2.0 0.00 0.00 0.00 88 1014.0
20260507211205 38 100 0.0 2.0 0.00 0.00 0.00 88 1014.0
20260507210705 38 100 0.0 2.0 0.00 0.00 0.00 88 1014.0
20260507210221 38 100 0.0 0.0 0.00 0.00 0.00 88 1014.0
20260507205705 39 100 0.0 2.0 0.00 0.00 0.00 88 1013.8
20260507205204 39 100 0.0 2.0 0.00 0.00 0.00 88 1013.8
20260507204704 39 100 0.0 3.0 0.00 0.00 0.00 87 1013.6
20260507204204 39 100 0.0 3.0 0.00 0.00 0.00 87 1013.6
20260507203704 39 100 1.0 3.0 0.00 0.00 0.00 87 1013.6
20260507203204 39 100 2.0 2.0 0.00 0.00 0.00 86 1013.5
20260507202704 40 102 0.0 4.0 0.00 0.00 0.00 86 1013.5
20260507202205 40 102 0.0 4.0 0.00 0.00 0.00 86 1013.5
20260507201705 40 102 1.0 4.0 0.00 0.00 0.00 85 1013.5
20260507201204 40 102 2.0 3.0 0.00 0.00 0.00 84 1013.4
20260507200704 41 142 0.0 0.0 0.00 0.00 0.00 84 1013.3
20260507200204 41 142 0.0 3.0 0.00 0.00 0.00 84 1013.2
20260507195705 42 142 0.0 4.0 0.00 0.00 0.00 83 1013.0
20260507194705 42 142 2.0 4.0 0.00 0.00 0.00 82 1013.0
20260507194205 43 140 3.0 3.0 0.00 0.00 0.00 81 1013.0
20260507193705 43 133 1.0 2.0 0.00 0.00 0.00 80 1012.8
20260507193205 44 133 0.0 2.0 0.00 0.00 0.00 80 1012.8
20260507192704 45 133 1.0 3.0 0.00 0.00 0.00 79 1012.8
20260507192205 45 133 1.0 3.0 0.00 0.00 0.00 78 1012.7
20260507191704 46 133 1.0 3.0 0.00 0.00 0.00 78 1012.7
20260507191204 46 134 0.0 3.0 0.00 0.00 0.00 77 1012.7
20260507190705 47 134 0.0 3.0 0.00 0.00 0.00 76 1012.6
20260507185205 47 133 0.0 3.0 0.00 0.00 0.00 73 1012.5
20260507184705 48 133 1.0 3.0 0.00 0.00 0.00 74 1012.4
20260507184205 48 109 1.0 5.0 0.00 0.00 0.00 74 1012.3
20260507183705 48 107 0.0 5.0 0.00 0.00 0.00 73 1012.2
20260507183205 48 106 1.0 5.0 0.00 0.00 0.00 74 1012.2
20260507182705 48 116 3.0 5.0 0.00 0.00 0.00 74 1011.7
20260507182205 48 100 3.0 5.0 0.00 0.00 0.00 74 1011.7
20260507181705 48 103 3.0 5.0 0.00 0.00 0.00 74 1011.7
20260507181205 48 99 3.0 5.0 0.00 0.00 0.00 74 1011.6
20260507180204 49 128 1.0 4.0 0.00 0.00 0.00 73 1011.9
20260507175705 49 131 1.0 5.0 0.00 0.00 0.00 73 1012.1
20260507175205 49 138 2.0 5.0 0.00 0.00 0.00 73 1012.2
20260507174704 49 130 2.0 5.0 0.00 0.00 0.00 72 1012.1
20260507174205 49 142 2.0 7.0 0.00 0.00 0.00 72 1012.1
20260507173704 49 102 2.0 7.0 0.00 0.00 0.00 70 1012.1
20260507173205 49 71 3.0 7.0 0.00 0.00 0.00 68 1011.9
20260507172705 50 90 3.0 5.0 0.00 0.00 0.00 69 1011.9
20260507172205 50 83 3.0 7.0 0.00 0.00 0.00 70 1011.9
20260507171704 50 188 2.0 9.0 0.00 0.00 0.00 68 1011.9
20260507171223 50 155 3.0 9.0 0.00 0.00 0.00 69 1011.9
20260507170705 50 118 3.0 9.0 0.00 0.00 0.00 68 1011.9
20260507170205 51 196 6.0 9.0 0.00 0.00 0.00 67 1011.9
20260507165204 51 172 1.0 11.0 0.00 0.00 0.00 67 1011.9
20260507164205 51 286 2.0 11.0 0.00 0.00 0.00 68 1011.6
20260507163705 51 96 2.0 3.0 0.00 0.00 0.00 70 1011.1
20260507162704 51 192 0.0 4.0 0.00 0.00 0.00 71 1011.6
20260507162205 50 189 1.0 4.0 0.00 0.00 0.00 71 1011.5
20260507161705 50 182 1.0 5.0 0.00 0.00 0.00 72 1011.6
20260507161205 50 141 2.0 7.0 0.00 0.00 0.00 72 1011.6
20260507160205 50 180 2.0 10.0 0.00 0.00 0.00 72 1011.6
20260507155704 49 179 2.0 11.0 0.00 0.00 0.00 72 1011.5
20260507155204 49 161 2.0 11.0 0.00 0.00 0.00 73 1011.4
20260507154705 49 159 4.0 11.0 0.00 0.00 0.00 72 1011.3
20260507154204 50 162 5.0 11.0 0.00 0.00 0.00 73 1011.3
20260507153705 49 107 4.0 7.0 0.00 0.00 0.00 73 1011.3
20260507153205 49 140 3.0 10.0 0.00 0.00 0.00 73 1011.4
20260507151705 50 128 3.0 9.0 0.00 0.00 0.00 73 1011.5
20260507151205 49 130 4.0 9.0 0.00 0.00 0.00 73 1011.5
20260507150705 49 142 3.0 11.0 0.00 0.00 0.00 73 1011.5
20260507150204 49 141 3.0 13.0 0.00 0.00 0.00 72 1011.8
20260507145704 49 59 4.0 13.0 0.00 0.00 0.00 71 1011.9
20260507145205 49 190 5.0 13.0 0.00 0.00 0.00 70 1012.1
20260507144704 50 186 6.0 12.0 0.00 0.00 0.00 70 1012.2
20260507144204 50 130 4.0 12.0 0.00 0.00 0.00 71 1012.2
20260507143704 51 62 3.0 10.0 0.00 0.00 0.00 72 1012.2
20260507143205 50 13 1.0 12.0 0.00 0.00 0.00 70 1012.2
20260507142704 50 185 1.0 12.0 0.00 0.00 0.00 71 1012.3
20260507141705 50 164 4.0 11.0 0.00 0.00 0.00 71 1012.3
20260507141205 50 290 5.0 11.0 0.00 0.00 0.00 71 1012.3
20260507140705 50 289 5.0 11.0 0.00 0.00 0.00 71 1012.3
20260507140205 50 90 3.0 13.0 0.00 0.00 0.00 72 1012.3
20260507135704 50 269 4.0 13.0 0.00 0.00 0.00 72 1012.4
20260507135204 50 214 8.0 14.0 0.00 0.00 0.00 72 1012.3
20260507133705 49 271 8.0 13.0 0.00 0.00 0.00 70 1012.3
20260507131704 53 221 6.0 11.0 0.00 0.00 0.00 64 1011.9
20260507131204 54 265 6.0 9.0 0.00 0.00 0.00 66 1011.9
20260507130704 53 41 3.0 11.0 0.00 0.00 0.00 65 1012.1
20260507130233 52 172 3.0 11.0 0.00 0.00 0.00 65 1012.2
20260507125705 52 157 2.0 11.0 0.00 0.00 0.00 63 1012.2
20260507125205 52 176 5.0 13.0 0.00 0.00 0.00 64 1012.3
20260507124704 52 121 2.0 13.0 0.00 0.00 0.00 62 1012.3
20260507124204 52 54 3.0 12.0 0.00 0.00 0.00 62 1012.4
20260507123704 52 107 2.0 11.0 0.00 0.00 0.00 66 1012.4
20260507123205 52 190 2.0 11.0 0.00 0.00 0.00 67 1012.4
20260507122706 52 278 5.0 11.0 0.00 0.00 0.00 68 1012.4
20260507122205 51 41 3.0 11.0 0.00 0.00 0.00 70 1012.4
20260507121704 51 159 5.0 11.0 0.00 0.00 0.00 75 1012.6
20260507121204 50 102 8.0 12.0 0.00 0.00 0.00 74 1012.7
20260507120704 50 145 4.0 12.0 0.00 0.00 0.00 74 1012.7
20260507120204 50 144 4.0 12.0 0.00 0.00 0.00 73 1013.0
20260507114705 50 133 3.0 28.0 0.00 0.00 0.00 71 1013.0
20260507113704 50 131 5.0 16.0 0.00 0.00 0.00 67 1012.8
20260507113205 50 173 7.0 15.0 0.00 0.00 0.00 68 1012.8
20260507112705 50 186 2.0 15.0 0.00 0.00 0.00 66 1012.8
20260507112205 50 216 8.0 14.0 0.00 0.00 0.00 65 1013.0
20260507111705 51 45 4.0 14.0 0.00 0.00 0.00 64 1012.8
20260507111227 51 107 6.0 13.0 0.00 0.00 0.00 66 1013.0
20260507105704 51 96 6.0 14.0 0.00 0.00 0.00 64 1013.0
20260507105204 52 80 6.0 14.0 0.00 0.00 0.00 65 1013.1
20260507104705 52 144 6.0 13.0 0.00 0.00 0.00 65 1013.0
20260507103705 51 137 7.0 12.0 0.00 0.00 0.00 67 1013.1
20260507103205 51 85 5.0 11.0 0.00 0.00 0.00 70 1013.1
20260507102705 51 80 5.0 11.0 0.00 0.00 0.00 74 1013.1
20260507102205 49 96 6.0 11.0 0.00 0.00 0.00 73 1013.1
20260507100705 48 131 5.0 16.0 0.00 0.00 0.00 74 1013.1
20260507095704 47 96 6.0 19.0 0.00 0.00 0.00 73 1013.1
20260507095205 47 145 8.0 19.0 0.00 0.00 0.00 74 1013.1
20260507094704 47 130 10.0 19.0 0.00 0.00 0.00 74 1013.1
20260507094205 47 171 7.0 18.0 0.00 0.00 0.00 74 1013.1
20260507093705 47 151 8.0 15.0 0.00 0.00 0.00 73 1013.0
20260507093204 47 164 6.0 15.0 0.00 0.00 0.00 72 1012.8
20260507092705 48 111 8.0 14.0 0.00 0.00 0.00 71 1013.0
20260507092205 48 80 5.0 14.0 0.00 0.00 0.00 70 1013.0
20260507091705 49 138 6.0 14.0 0.00 0.00 0.00 70 1012.8
20260507090732 48 154 5.0 13.0 0.00 0.00 0.00 71 1012.7
20260507085704 47 116 5.0 17.0 0.00 0.00 0.00 72 1012.7
20260507085204 47 157 7.0 17.0 0.00 0.00 0.00 71 1012.5
20260507084704 47 148 7.0 17.0 0.00 0.00 0.00 71 1012.5
20260507084204 48 185 5.0 18.0 0.00 0.00 0.00 71 1012.5
20260507083704 47 166 7.0 18.0 0.00 0.00 0.00 70 1012.3
20260507083205 48 172 8.0 18.0 0.00 0.00 0.00 71 1012.3
20260507082705 48 118 6.0 16.0 0.00 0.00 0.00 70 1012.4
20260507082205 48 140 7.0 15.0 0.00 0.00 0.00 69 1012.5
20260507081205 49 99 6.0 14.0 0.00 0.00 0.00 67 1012.5
20260507080705 50 125 6.0 14.0 0.00 0.00 0.00 65 1012.5
20260507080204 51 117 3.0 14.0 0.00 0.00 0.00 65 1012.4
20260507075205 51 82 6.0 13.0 0.00 0.00 0.00 67 1012.3
20260507074704 50 120 5.0 13.0 0.00 0.00 0.00 66 1012.5
20260507074205 50 100 6.0 16.0 0.00 0.00 0.00 66 1012.5
20260507073705 49 138 3.0 16.0 0.00 0.00 0.00 65 1012.4
20260507073204 50 159 6.0 16.0 0.00 0.00 0.00 63 1012.3
20260507072705 50 140 6.0 12.0 0.00 0.00 0.00 65 1012.2
20260507072204 50 162 2.0 10.0 0.00 0.00 0.00 68 1012.2
20260507071705 49 83 5.0 10.0 0.00 0.00 0.00 71 1012.2
20260507071204 48 124 2.0 10.0 0.00 0.00 0.00 69 1012.1
20260507070704 48 99 5.0 7.0 0.00 0.00 0.00 72 1012.2
20260507070204 47 92 4.0 7.0 0.00 0.00 0.00 73 1012.2
20260507065705 47 137 3.0 7.0 0.00 0.00 0.00 74 1012.2
20260507065205 46 111 4.0 9.0 0.00 0.00 0.00 76 1012.2
20260507064704 45 145 2.0 9.0 0.00 0.00 0.00 75 1012.3
20260507064205 45 121 3.0 9.0 0.00 0.00 0.00 75 1012.3
20260507063705 44 104 4.0 6.0 0.00 0.00 0.00 76 1012.2
20260507063205 44 154 3.0 6.0 0.00 0.00 0.00 77 1012.1
20260507062705 43 118 2.0 7.0 0.00 0.00 0.00 78 1012.1
20260507062204 43 130 3.0 7.0 0.00 0.00 0.00 78 1012.1
20260507061705 43 131 2.0 7.0 0.00 0.00 0.00 79 1012.1
20260507061205 43 99 2.0 6.0 0.00 0.00 0.00 80 1012.1
20260507060705 43 134 3.0 6.0 0.00 0.00 0.00 80 1012.1
20260507055704 42 117 2.0 9.0 0.00 0.00 0.00 81 1011.9
20260507054704 42 172 2.0 5.0 0.00 0.00 0.00 82 1011.8
20260507053704 41 130 0.0 5.0 0.00 0.00 0.00 83 1011.8
20260507053205 41 127 2.0 6.0 0.00 0.00 0.00 83 1011.7
20260507051704 40 257 1.0 4.0 0.00 0.00 0.00 85 1011.7
20260507050705 39 159 1.0 4.0 0.00 0.00 0.00 86 1011.7
20260507050204 39 118 2.0 4.0 0.00 0.00 0.00 86 1011.7
20260507045705 39 227 1.0 4.0 0.00 0.00 0.00 86 1011.7
20260507045204 39 214 2.0 4.0 0.00 0.00 0.00 86 1011.7
20260507044704 39 210 1.0 4.0 0.00 0.00 0.00 86 1011.7
20260507044204 39 216 1.0 3.0 0.00 0.00 0.00 86 1011.7
20260507043705 39 278 0.0 3.0 0.00 0.00 0.00 86 1011.7
20260507043204 39 275 1.0 2.0 0.00 0.00 0.00 86 1011.8
20260507042704 39 272 0.0 4.0 0.00 0.00 0.00 86 1011.8
20260507041704 40 0 0.0 4.0 0.00 0.00 0.00 87 1012.1
20260507041204 39 317 0.0 4.0 0.00 0.00 0.00 87 1012.1
20260507040728 39 354 2.0 5.0 0.00 0.00 0.00 87 1011.9
20260507040204 40 269 0.0 5.0 0.00 0.00 0.00 88 1011.9
20260507035704 39 233 0.0 5.0 0.00 0.00 0.00 88 1011.9
20260507035204 39 147 2.0 5.0 0.00 0.00 0.00 89 1011.9
20260507034705 39 110 1.0 6.0 0.00 0.00 0.00 89 1011.9
20260507033705 39 164 0.0 6.0 0.00 0.00 0.00 90 1012.2
20260507033205 39 169 3.0 6.0 0.00 0.00 0.00 90 1012.2
20260507032705 39 199 2.0 7.0 0.00 0.00 0.00 91 1012.2
20260507032204 39 138 3.0 7.0 0.00 0.00 0.00 91 1012.2
20260507031704 39 166 4.0 7.0 0.00 0.00 0.00 92 1012.2
20260507031205 39 175 3.0 7.0 0.00 0.00 0.00 92 1012.3
20260507030704 39 169 3.0 7.0 0.00 0.00 0.00 92 1012.3
20260507030204 38 124 1.0 7.0 0.00 0.00 0.00 92 1012.3
20260507025704 38 140 4.0 5.0 0.00 0.00 0.00 92 1012.4
20260507024705 38 123 0.0 5.0 0.00 0.00 0.00 92 1012.3